Dean International
Flight School

Career Spotlight

Mika

Mika

Congratulations to Mika from Khazakstan. She recently sent us this photo of her flying an Airbus airliner.

More...
Mika's Success Story
close

Congratulations to Mika from Khazakstan. She recently sent us this photo of her flying an Airbus airliner.

Mario

Mario

My dreams could not have been realized if I wouldn't have been part of the Dean International family.

More...
Mario's Success Story
close

"My dreams could not have been realized if I wouldn't have been part of the Dean International family. Thank you Robert, thanks to all my co-workers, and thanks to all of my students!"

Fernando

Fernando

I am now working as a First Officer at TACA and am enjoying every moment of it.

More...
Fernando's Success Story
close

"Will never forget my time of flight training at Dean International. I am now working as a First Officer at TACA and am enjoying every moment of it."

Alvaro

Alvaro

Because of the flight time I was able to built while instructing, I got the experience needed to apply to an airline in Colombia.

More...
Alvaro's Success Story
close

Dean alumnus Alvaro Londoño currently flies with Tampa Cargo. He says of his experience at Dean: "I want to take this opportunity to thank you for giving me the chance to build my experience and expand my knowledge in Dean International. Because of the flight time I was able to built flight instructing, I got the experience needed to apply to an airline in Colombia."

Ralph

Ralph

Every Aruban student of Dean International has made it into Tiara Air Aruba, that is very nice.

More...
Ralph's Success Story
close

"Next to me is my Co-Pilot, Elison. This picture was taken on our first flight together, which was almost exactly 5 years after I finished at Dean International. [...] Every Aruban student of Dean International has made it into Tiara Air Aruba. [...] The future looks bright here in Aruba."

Rohaan

Rohaan

The [..] staff will all work diligently to help you finish your certificates as safely and efficiently as possible.

More...
Rohaan's Success Story
close

After receiving very hard times from other flight schools [...], I came to Dean International where Robert Dean personally sat down with me and gave me a financial and chronological look into how much remained to finish my private pilot certificate. Through his hard efforts as an instructor and mentor, I was able to finish my private pilot certificate within one week.

Welcome to Dean International

In over two decades, Dean International has educated over 7,000 pilots from all over the world, including over 1,000 students from India alone. By offering a great training experience, a friendly service staff, an ample variety of aircraft, and by improving constantly, we have become one of the largest, most prestigious FAA 141-approved flight schools in North America. Located in Miami, Florida, USA, our flight school offers an ideal location for year-round, "learn to fly" weather, flight training. Dean International is not only well-equipped to provide services to professional trainees but also caters to General Aviation renters. Visit or contact our headquarters at Kendall-Tamiami Executive Airport located in Miami, FL today to learn more about us, or simply read more about our programs if you are an international student interested in joining our school.

Local Airport Information
TAF FOR KTMB (Issued: Fri, October 31st 2014 9:12 PM UTC)
TAF
      AMD KTMB 312111Z 3121/0118 27011KT P6SM FEW050
      FM010200 30006KT P6SM SKC
      FM011400 31015KT P6SM SKC
     
METAR FOR KTMB (Issued: Fri, October 31st 2014 9:53 PM UTC):
KTMB 312153Z 25010KT 10SM FEW040 29/19 A2979 RMK AO2 SLP088 T02940194

This weather information is provided by the National Weather Service.
It is automatically refreshed every three minutes.
TAF FOR KHST (Issued: Fri, October 31st 2014 7:12 PM UTC)
TAF TAF
      AMD KHST 3119/0122 27012G18KT 9999 FEW030 SCT050 QNH2975INS
      TEMPO 3119/3122 9000 -SHRA SCT010 BKN020
      BECMG 3121/3122 26011KT 9999 FEW020 SCT050 QNH2975INS
      BECMG 0113/0114 34012G18KT 9999 FEW040 QNH2996INS
      BECMG 0116/0117 33012G22KT 9999 FEW035 QNH2995INS TX31/3120Z TN17/0111Z
      AMD 311905
     
METAR FOR KHST (Issued: Fri, October 31st 2014 9:58 PM UTC):
KHST 312158Z AUTO 27011KT 10SM FEW047 28/19 A2979 RMK AO2 SLP091 T02770190

This weather information is provided by the National Weather Service.
It is automatically refreshed every three minutes.
TAF FOR KOPF (Issued: Fri, October 31st 2014 9:12 PM UTC)
TAF
      AMD KOPF 312111Z 3121/0118 28012KT P6SM SKC
      FM010200 30006KT P6SM SKC
      FM011400 30015KT P6SM SKC
     
METAR FOR KOPF (Issued: Fri, October 31st 2014 9:53 PM UTC):
KOPF 312153Z 25010KT 10SM CLR 28/18 A2978 RMK AO2 SLP085 T02780183 $

This weather information is provided by the National Weather Service.
It is automatically refreshed every three minutes.
TAF FOR KMIA (Issued: Fri, October 31st 2014 9:15 PM UTC)
TAF
      AMD KMIA 312111Z 3121/0118 26008KT P6SM SCT050
      FM010100 29006KT P6SM SKC
      FM011400 30012KT P6SM SKC
     
METAR FOR KMIA (Issued: Fri, October 31st 2014 9:53 PM UTC):
KMIA 312153Z 26007KT 10SM FEW042 SCT060 SCT090 SCT250 28/18 A2978 RMK AO2 SLP086 TCU DSNT NW-NE T02830178

This weather information is provided by the National Weather Service.
It is automatically refreshed every three minutes.
Design by Ariel Llizo
© Dean International Inc. 2012